Location: East Guldeford
(50.9500°N, 0.7500°E)
Time: 18:40:22
(UTC+00:00)

Cosmos 2184 Rocket - Pass Details

Date: 12 May 2021
Orbit: 958 x 1003 km, 82.9° (Epoch: 15 June)

Event Time Altitude Azimuth Distance (km) Brightness Sun altitude
Rises 21:30:43 0° 348° (NNW) 3,688 8.3 -14.0°
Reaches altitude 10° 21:33:15 10° 347° (NNW) 2,730 7.5 -14.2°
Maximum altitude 21:39:29 75° 264° (W) 1,003 4.1 -14.7°
Enters shadow 21:44:31 16° 181° (S) 2,288 5.5 -15.1°
